Regional Weather Roundup
Issued by NWS

Home | Current Version | Previous Version | Text Only | Print | Product List | Glossary On
Versions: 1 2 3 4 5 6 7 8 9 10 11 12 13 14 15 16 17 18 19 20 21 22 23 24 25 26 27 28 29 30 31 32 33 34 35 36 37 38 39 40 41 42 43 44 45 46 47 48 49 50
000
ASUS45 KSLC 181210
RWRUT

UTAH REGIONAL WEATHER ROUNDUP
NATIONAL WEATHER SERVICE SALT LAKE CITY UT
600 AM MDT SAT APR 18 2015

UTZ001>011-023>025-181300-

NORTHERN UTAH

CITY           SKY/WX    TMP DP  RH WIND       PRES   REMARKS
BRIGHAM CITY   CLEAR     39  33  78 CALM      30.03R
HILL AFB       CLEAR     42  36  78 E16       30.02S
LOGAN          CLEAR     36  32  85 CALM      30.04S
OGDEN          CLEAR     43  35  73 S9        30.01S
PROVO AIRPORT  CLEAR     37  30  75 SE5       30.04R WCI  34
SALT LAKE CITY PTCLDY    43  36  76 SE5       30.02R
VERNAL         LGT RAIN  41  36  82 E3        30.02S
WENDOVER       PTCLDY    54  21  28 NW8       30.03S
HEBER CITY     CLEAR     30  28  93 E5        30.07R WCI  25
WEST JORDAN    CLEAR     43  36  75 NW3       30.03S

$$

UTZ012>022-026-027-181300-

SOUTHERN/CENTRAL UTAH

CITY           SKY/WX    TMP DP  RH WIND       PRES   REMARKS
BLANDING       CLEAR     31  31 100 CALM      30.10R
BRYCE CANYON   CLEAR     37  26  64 NW17      30.08S WCI  27
CEDAR CITY     CLEAR     33  26  75 CALM      30.06S
DELTA          CLEAR     33  26  78 S8        30.04R WCI  25
HANKSVILLE     CLOUDY    43  41  93 NW3       30.04S
MILFORD        CLEAR     31  26  82 S7        30.05S WCI  24
MOAB/CYNLANDS  PTCLDY    36  35  96 E3        30.02R
PRICE          MOCLDY    38  32  79 NE5       30.02S WCI  34
ST GEORGE      SUNNY     48  25  40 SE6       30.02R
KANAB          CLEAR     30  27  86 E5        30.08S WCI  25

$$

REGIONAL REPORTS     COLORADO/ARIZONA

CITY           SKY/WX    TMP DP  RH WIND       PRES   REMARKS
CRAIG, CO      CLOUDY    33  30  88 W8        30.01F WCI  26
GRAND JUNCTION MOCLDY    32  32 100 CALM      30.05R FOG
RIFLE          CLOUDY    35  30  82 CALM      30.05R
MONTROSE       CLOUDY    32  31  96 SE7       30.07S WCI  26
CORTEZ         PTCLDY    32  32 100 NE3       30.04R FOG
PAGE, AZ       CLEAR     47  33  58 SE6       30.00R
GRAND CANYON   CLEAR     25  21  85 NE8       30.10R WCI  16
KINGMAN        CLEAR     40  19  43 SE5       30.01R
FLAGSTAFF      CLEAR     33  23  66 W5        30.10R WCI  29

$$

REGIONAL REPORTS    NEVADA/IDAHO/WYOMING

CITY           SKY/WX    TMP DP  RH WIND       PRES   REMARKS
LAS VEGAS, NV  CLEAR     59  20  22 S10       29.92S
ELY            PTCLDY    25  11  55 S12       30.12F WCI  14
ELKO           CLEAR     32  20  61 CALM      30.12R
POCATELLO, ID  CLEAR     41  27  57 S8        30.06R
BURLEY         CLEAR     37  28  70 SW7       30.04R WCI  32
EVANSTON, WY   CLEAR     33  29  85 S3        30.07F
ROCK SPRINGS   MOCLDY    34  32  92 NW7       30.04F WCI  28

$$


USA.gov is the U.S. government's official web portal to all federal, state and local government web resources and services.